KE0TRL Weather Reports


time (UTC)temp
C
wind
direction
speed
KPH
gust
KPH
rain 1hr
cm
rain 24hr
cm
rain mn
cm
humidity
%
barometer
mb
20260510041802 12 158 3.2 3.2 0.00 0.00 0.03 45 1014.2
20260510035602 12 203 3.2 4.8 0.00 0.00 0.03 44 1013.9
20260510034601 13 180 3.2 4.8 0.00 0.00 0.03 44 1013.5
20260510033003 13 158 3.2 6.4 0.00 0.00 0.03 44 1013.5
20260510031902 13 135 4.8 4.8 0.00 0.00 0.03 44 1013.2
20260510030702 13 158 4.8 4.8 0.00 0.00 0.03 44 1013.2
20260510025602 14 225 1.6 3.2 0.00 0.00 0.03 43 1012.9
20260510024503 14 180 3.2 3.2 0.00 0.00 0.03 43 1012.9
20260510023402 15 203 0.0 1.6 0.00 0.00 0.03 41 1012.2
20260510022306 15 180 3.2 3.2 0.00 0.00 0.03 40 1012.2
20260510021202 15 203 1.6 1.6 0.00 0.00 0.03 40 1011.9
20260510015002 16 180 4.8 4.8 0.00 0.00 0.03 37 1011.5
20260510013902 17 180 6.4 6.4 0.00 0.00 0.03 39 1011.2
20260510012802 17 180 6.4 6.4 0.00 0.00 0.03 37 1010.8
20260510011703 17 180 1.6 8.0 0.00 0.00 0.03 37 1010.5
20260510010602 18 180 1.6 4.8 0.00 0.00 0.03 37 1010.5
20260510005503 18 180 3.2 8.0 0.00 0.00 0.03 39 1010.2
20260510004402 19 180 3.2 4.8 0.00 0.00 0.03 39 1010.2
20260510003302 19 135 4.8 4.8 0.00 0.00 0.03 41 1010.2
20260510002202 19 203 4.8 6.4 0.00 0.00 0.03 41 1009.8
20260510001102 19 180 4.8 4.8 0.00 0.00 0.03 40 1010.2
20260510000004 20 158 8.0 9.7 0.00 0.00 0.03 40 1010.2
20260509234902 20 158 3.2 8.0 0.00 0.00 0.03 41 1009.8
20260509233802 20 203 4.8 6.4 0.00 0.00 0.03 44 1009.8
20260509232702 20 203 1.6 6.4 0.00 0.00 0.03 44 1009.8
20260509231504 20 203 3.2 3.2 0.00 0.00 0.03 45 1009.5
20260509230402 20 135 6.4 6.4 0.00 0.00 0.03 45 1009.8
20260509225305 20 158 3.2 6.4 0.00 0.00 0.03 45 1009.8
20260509224003 20 158 3.2 11.3 0.00 0.00 0.03 45 1009.8
20260509222902 20 180 6.4 6.4 0.00 0.00 0.03 45 1009.5
20260509221802 20 113 4.8 6.4 0.00 0.00 0.03 45 1009.5
20260509220702 20 180 4.8 6.4 0.00 0.00 0.03 45 1009.5
20260509215602 20 293 6.4 6.4 0.00 0.00 0.03 45 1009.5
20260509214502 20 315 9.7 9.7 0.00 0.00 0.03 45 1009.1
20260509212202 20 293 9.7 9.7 0.00 0.00 0.03 45 1009.1
20260509211102 20 180 6.4 14.5 0.00 0.00 0.03 44 1008.8
20260509210003 21 203 6.4 11.3 0.00 0.00 0.03 41 1008.8
20260509204902 21 248 17.7 19.3 0.00 0.00 0.03 40 1008.8
20260509203802 21 225 9.7 12.9 0.00 0.00 0.03 40 1008.8
20260509202701 22 180 6.4 8.0 0.00 0.00 0.03 37 1008.8
20260509201502 23 225 8.0 14.5 0.00 0.00 0.03 37 1008.5
20260509195302 24 225 4.8 9.7 0.00 0.00 0.03 37 1008.1
20260509194102 24 225 11.3 11.3 0.00 0.00 0.03 35 1007.8
20260509193003 23 180 3.2 6.4 0.00 0.00 0.03 35 1007.5
20260509191902 24 180 6.4 6.4 0.00 0.00 0.03 30 1007.5
20260509185602 25 203 4.8 8.0 0.00 0.00 0.03 27 1007.5
20260509184502 25 113 3.2 8.0 0.00 0.00 0.03 30 1007.1
20260509183402 23 180 6.4 6.4 0.00 0.00 0.03 30 1007.5
20260509182306 24 203 4.8 8.0 0.00 0.00 0.03 31 1007.5
20260509181102 25 225 3.2 4.8 0.00 0.00 0.03 30 1007.1
20260509174702 23 203 9.7 9.7 0.00 0.00 0.03 30 1007.1
20260509173603 23 113 3.2 8.0 0.00 0.00 0.03 29 1007.1
20260509172602 22 203 3.2 6.4 0.00 0.00 0.03 29 1007.1
20260509170402 22 180 1.6 4.8 0.00 0.00 0.03 31 1007.5
20260509165306 22 113 9.7 9.7 0.00 0.00 0.03 30 1007.1
20260509164202 21 158 3.2 4.8 0.00 0.00 0.03 30 1007.1
20260509163003 22 180 3.2 3.2 0.00 0.00 0.03 30 1007.1
20260509162002 21 270 3.2 9.7 0.00 0.00 0.03 32 1007.1
20260509160902 21 203 3.2 6.4 0.00 0.00 0.03 34 1007.1
20260509155702 21 180 4.8 8.0 0.03 0.00 0.03 35 1007.1
20260509154603 20 203 1.6 6.4 0.03 0.00 0.03 35 1007.8
20260509152402 20 315 4.8 4.8 0.00 0.00 0.00 37 1007.8
20260509151202 20 180 4.8 8.0 0.00 0.00 0.00 39 1007.5
20260509150003 19 180 6.4 9.7 0.00 0.00 0.00 40 1007.5
20260509143702 17 180 6.4 6.4 0.00 0.00 0.00 45 1006.8
20260509142602 17 68 3.2 6.4 0.00 0.00 0.00 45 1006.4
20260509141503 17 68 1.6 6.4 0.00 0.00 0.00 50 1006.8
20260509140503 16 45 4.8 6.4 0.00 0.00 0.00 49 1006.4
20260509135402 15 45 4.8 8.0 0.00 0.00 0.00 51 1006.4
20260509134302 14 23 4.8 6.4 0.00 0.00 0.00 54 1006.4
20260509133102 14 68 3.2 8.0 0.00 0.00 0.00 54 1006.4
20260509130802 12 23 4.8 4.8 0.00 0.00 0.00 60 1006.4
20260509125702 12 68 3.2 4.8 0.00 0.00 0.00 56 1006.4
20260509124602 11 68 3.2 4.8 0.00 0.00 0.00 61 1006.4
20260509123502 11 45 4.8 4.8 0.00 0.00 0.00 61 1006.4
20260509122502 10 45 3.2 3.2 0.00 0.00 0.00 63 1006.4
20260509121402 10 68 3.2 3.2 0.00 0.00 0.00 63 1006.4
20260509120302 9 45 3.2 3.2 0.00 0.00 0.00 65 1006.1
20260509114003 9 45 1.6 1.6 0.00 0.00 0.00 65 1005.8
20260509112702 8 45 1.6 3.2 0.00 0.00 0.00 65 1006.1
20260509111603 9 45 1.6 3.2 0.00 0.00 0.00 65 1005.8
20260509110601 9 45 3.2 3.2 0.00 0.00 0.00 65 1005.8
20260509105502 9 45 3.2 3.2 0.00 0.00 0.00 65 1005.8
20260509104108 9 45 3.2 3.2 0.00 0.00 0.00 63 1005.8
20260509103003 9 68 3.2 3.2 0.00 0.00 0.00 63 1005.8
20260509101902 9 45 3.2 4.8 0.00 0.00 0.00 63 1005.8
20260509100702 9 45 3.2 3.2 0.00 0.00 0.00 63 1006.1
20260509095602 9 45 3.2 4.8 0.00 0.00 0.00 63 1005.8
20260509092305 10 68 3.2 3.2 0.00 0.00 0.00 60 1005.8
20260509091202 10 45 3.2 3.2 0.00 0.00 0.00 59 1006.1
20260509085402 10 45 4.8 4.8 0.00 0.00 0.00 59 1005.8
20260509083102 10 45 3.2 4.8 0.00 0.00 0.00 56 1005.8
20260509082002 10 68 3.2 3.2 0.00 0.00 0.00 56 1005.4
20260509080603 10 45 3.2 3.2 0.00 0.00 0.00 55 1005.8
20260509075602 10 45 1.6 3.2 0.00 0.00 0.00 55 1005.8
20260509074502 11 45 3.2 4.8 0.00 0.00 0.00 55 1005.4
20260509073402 11 113 0.0 0.0 0.00 0.00 0.00 54 1005.8
20260509072306 11 90 0.0 0.0 0.00 0.00 0.00 54 1005.8
20260509071203 11 90 0.0 3.2 0.00 0.00 0.00 53 1005.8
20260509065003 12 68 3.2 3.2 0.00 0.00 0.00 51 1005.8
20260509064002 12 23 3.2 3.2 0.00 0.00 0.00 50 1006.1
20260509062902 12 113 0.0 0.0 0.00 0.00 0.00 50 1006.1
20260509061802 13 68 1.6 3.2 0.00 0.00 0.00 49 1005.8
20260509060702 13 158 0.0 3.2 0.00 0.00 0.00 48 1006.1
20260509055602 13 45 3.2 3.2 0.00 0.00 0.00 45 1005.8
20260509054502 15 338 3.2 3.2 0.00 0.00 0.00 44 1006.1
20260509051102 15 203 1.6 3.2 0.00 0.00 0.00 40 1005.8
20260509050003 16 90 3.2 3.2 0.00 0.00 0.00 40 1005.8
20260509044902 16 338 1.6 3.2 0.00 0.00 0.00 39 1005.8